Theta_e
327 321 322 325 324 323 326 325 323 324 325 325 325 326 329 331 335 337 343 343 338 339 348 341 342 343 344 344 348 349 349 349 348 347 345 344 343 340 338 340 339 336 333 333 328 323 317 314 312
326 323 323 323 322 324 326 324 323 323 323 323 325 326 326 329 329 329 333 343 338 342 349 345 341 341 344 345 347 348 349 349 349 347 345 344 342 341 339 338 335 332 329 326 321 315 313 311 310
326 327 324 322 322 321 323 322 323 322 322 324 326 326 327 330 336 339 345 343 340 344 348 346 337 340 343 347 347 348 349 349 348 345 344 340 339 338 334 332 329 326 323 319 315 313 312 313 313
327 326 323 324 321 321 319 321 323 323 322 324 327 329 328 333 334 337 338 344 341 344 345 349 332 339 341 347 348 348 349 347 344 343 337 335 333 331 327 326 324 320 316 316 315 315 315 316 316
326 327 326 327 324 321 320 321 321 321 322 322 328 331 332 335 332 342 344 344 341 343 342 351 332 337 339 341 346 345 344 341 341 336 331 330 327 325 324 321 319 316 316 316 316 317 317 318 318
328 327 329 328 326 323 323 324 324 326 325 324 328 330 334 331 332 342 342 344 341 341 340 350 338 337 338 338 339 340 339 338 336 332 327 325 324 323 322 319 317 316 317 316 317 318 318 319 320
330 328 328 327 327 327 327 326 326 327 328 327 329 331 332 329 332 341 342 342 341 339 340 349 348 343 338 336 337 338 338 336 335 332 327 325 324 323 320 318 316 316 317 316 316 317 318 319 320
326 328 329 327 327 327 327 328 327 328 327 327 328 331 330 328 329 339 342 341 340 339 339 345 346 347 347 343 336 336 337 336 335 331 329 327 326 325 323 319 317 316 317 316 316 316 318 319 320
322 328 329 328 328 327 327 327 327 327 327 327 327 327 327 324 323 335 343 341 341 339 338 342 344 345 344 341 344 339 335 335 335 335 332 328 337 336 334 328 328 317 317 317 317 316 317 319 321
322 326 326 326 326 327 327 328 327 325 327 327 327 327 325 324 323 326 331 343 340 340 338 341 343 344 343 339 342 345 345 344 344 343 343 341 339 340 337 336 328 322 317 318 318 319 320 322 329
319 323 323 323 324 325 326 326 326 324 325 326 327 325 324 322 323 325 329 335 338 338 339 340 344 345 343 339 341 343 342 343 343 344 345 343 342 344 342 339 340 335 328 331 330 331 331 331 331
317 319 320 321 322 320 322 323 323 322 321 320 321 320 320 322 324 325 328 329 340 337 337 340 343 346 346 342 343 342 341 342 343 343 346 345 345 345 342 339 338 339 335 335 333 333 333 333 333
314 316 316 316 316 317 318 319 319 320 319 317 317 319 320 321 322 322 325 332 333 340 337 337 341 345 347 346 342 342 341 342 342 343 345 344 343 342 341 340 339 338 337 336 336 334 333 334 334
314 314 314 315 315 316 315 316 316 317 317 316 317 318 319 320 321 320 322 328 335 332 340 338 338 342 346 347 344 344 344 342 343 341 343 346 342 342 339 341 340 338 337 335 335 334 333 333 332
313 313 313 314 314 314 314 314 315 316 316 316 316 319 319 319 319 320 321 324 328 331 334 343 339 341 344 345 345 343 342 341 341 341 342 343 345 343 343 340 339 337 337 339 338 336 334 333 332
313 313 313 313 312 313 313 313 315 315 315 316 316 315 318 319 318 319 319 321 323 328 333 345 343 341 343 342 342 339 336 338 338 338 338 342 343 342 343 338 337 336 337 336 336 334 334 333 334
314 313 314 314 314 314 314 314 315 315 315 315 316 315 316 317 318 318 318 319 321 323 329 338 347 343 341 343 341 338 336 336 333 335 333 336 340 338 338 334 329 334 337 336 335 334 335 336 338
315 314 314 314 315 314 314 315 315 315 315 315 315 316 315 315 316 316 317 318 318 322 326 327 342 333 344 343 342 339 337 336 335 334 331 335 335 336 333 334 329 332 337 335 337 338 339 339 340
312 313 313 314 313 314 314 315 315 315 315 315 316 316 316 316 315 315 316 318 318 322 324 326 333 340 343 348 342 339 337 335 334 333 333 329 335 336 328 331 330 336 338 334 338 342 342 343 343
312 313 314 313 313 312 313 313 314 314 314 314 316 316 316 316 316 316 315 317 320 322 324 325 326 330 344 351 349 347 344 341 337 336 336 337 336 333 333 337 336 341 340 340 344 344 344 344 345
312 313 313 312 312 312 313 314 313 313 313 314 314 315 316 316 316 316 316 316 319 320 321 322 325 326 327 334 342 347 347 348 347 345 343 341 335 334 337 339 338 344 345 345 347 346 345 345 346
312 311 310 311 313 313 313 313 313 313 313 313 314 314 315 315 315 315 316 315 318 318 318 320 323 326 325 327 329 338 342 343 345 346 347 347 348 345 344 345 346 348 348 346 348 347 347 347 346
311 311 311 312 313 314 314 315 314 313 313 313 313 313 314 314 314 315 315 316 317 317 317 319 321 324 326 328 330 330 339 339 342 344 346 350 350 350 347 348 349 350 349 347 348 348 348 346 345
312 311 313 314 314 314 314 314 313 314 314 313 314 314 314 315 315 317 316 316 316 316 316 318 320 321 325 327 328 331 333 336 337 339 341 345 347 350 350 349 350 351 350 350 350 349 347 346 345
312 314 314 313 315 313 314 314 314 314 314 314 314 314 314 316 316 317 316 316 315 315 316 317 317 320 321 324 325 326 331 334 337 341 340 340 339 341 345 350 350 351 351 351 350 349 347 347 346
314 314 314 313 313 313 314 315 317 314 314 314 314 315 315 316 317 317 317 317 316 315 315 316 317 318 320 321 324 324 327 330 333 334 334 335 338 337 341 349 350 351 351 350 350 347 345 345 346
314 314 313 314 314 316 315 315 315 315 314 314 314 314 315 315 316 316 316 316 316 315 315 315 316 317 319 320 322 324 326 330 331 333 336 337 336 337 339 345 349 350 350 350 347 343 346 346 346
313 313 314 315 317 316 315 316 316 316 315 314 314 314 314 315 316 315 315 315 314 314 314 315 317 318 319 321 321 322 323 328 332 336 338 340 340 341 340 346 348 349 347 345 346 345 348 347 348
314 313 313 315 318 320 318 315 316 315 315 315 315 314 315 315 315 315 315 315 314 314 314 314 316 318 318 319 320 321 323 326 329 333 337 338 343 343 343 345 346 346 345 346 347 348 349 349 349
313 314 315 319 318 316 316 316 315 315 315 315 315 315 315 316 316 316 316 315 314 315 315 316 316 318 317 317 318 319 322 326 330 332 336 337 339 342 343 344 344 343 343 347 348 349 348 349 348
Wind_Speed
7 3 3 5 6 6 13 5 2 5 7 1 2 6 6 12 5 2 5 4 13 24 27 34 34 32 30 31 33 32 31 30 28 26 25 24 22 20 18 17 15 13 13 13 12 11 10 10 9
4 3 5 2 7 10 9 4 8 2 4 6 8 7 11 13 5 9 8 2 15 26 27 31 36 34 31 32 34 33 32 31 29 27 26 24 22 20 19 17 15 14 13 12 11 10 10 10 10
2 4 5 4 7 9 7 1 3 5 5 1 3 3 7 4 9 14 4 3 14 24 27 30 38 36 34 34 34 34 32 31 30 28 26 25 23 22 20 18 17 15 13 12 12 11 11 10 10
5 5 3 8 11 4 9 6 3 3 2 3 3 7 2 3 15 23 20 12 18 24 27 30 39 38 37 35 36 35 34 32 31 29 27 26 25 22 21 19 17 15 14 13 12 11 11 11 10
8 4 9 10 9 4 9 9 10 10 8 8 1 4 9 2 20 19 15 13 24 28 29 29 41 40 39 37 35 35 35 33 32 30 28 27 25 23 21 19 17 15 14 13 12 11 11 10 10
7 5 10 13 13 10 9 8 8 6 5 6 7 8 2 11 24 21 13 12 22 30 29 28 41 41 40 38 37 36 35 34 33 31 29 27 25 23 21 19 17 15 14 12 11 10 10 9 8
14 10 16 17 15 13 12 11 10 9 6 6 6 8 3 14 22 18 10 8 20 29 30 28 32 38 39 37 36 35 35 34 33 31 29 26 24 22 20 18 16 14 12 11 10 10 9 9 8
10 12 21 18 17 19 11 10 12 9 10 6 2 3 11 12 16 15 8 6 19 27 29 29 31 30 30 31 36 35 34 33 32 30 28 25 23 21 19 17 16 14 13 11 10 10 10 10 10
12 12 18 24 21 15 8 12 9 4 7 10 7 8 11 13 18 12 4 5 17 24 27 27 29 28 28 28 28 34 34 32 31 28 27 24 17 16 16 16 16 15 14 13 13 13 12 12 12
14 15 26 21 19 13 15 17 9 6 14 15 13 14 10 15 19 14 11 7 15 21 26 25 26 27 27 27 25 26 24 24 22 21 19 19 17 15 16 15 19 17 16 15 15 15 14 14 12
12 21 18 14 12 17 18 18 10 11 16 18 16 11 16 20 17 11 11 12 19 20 23 26 27 28 28 27 26 25 24 23 23 23 21 20 17 15 16 13 13 15 17 13 14 14 14 14 13
12 15 18 12 12 9 16 17 13 14 17 13 13 11 15 15 12 11 6 8 11 19 25 24 24 24 26 26 26 25 27 25 24 25 23 21 20 17 16 16 14 14 14 15 15 13 14 15 16
16 11 9 15 14 15 14 16 17 18 10 13 17 11 11 13 9 11 5 4 6 9 22 26 25 25 26 26 25 25 26 25 23 22 23 22 20 18 17 16 15 14 13 13 13 13 13 15 16
1 11 12 14 16 14 16 18 16 18 8 9 14 12 14 15 12 16 11 5 8 7 13 23 28 28 26 27 24 24 22 22 22 21 21 23 20 18 18 17 15 14 14 14 14 15 13 14 16
7 12 15 16 17 15 10 18 23 16 11 17 19 12 11 8 10 8 7 7 8 11 11 15 25 27 27 31 27 25 24 23 22 22 20 20 21 20 18 16 16 16 17 15 15 13 14 14 16
11 8 13 9 7 9 8 16 4 3 5 4 7 8 9 8 6 4 3 4 5 9 10 10 15 23 29 31 29 28 26 23 24 21 21 23 24 22 20 19 17 14 14 14 15 14 14 15 15
8 10 8 5 6 3 9 10 6 6 8 8 7 6 8 8 7 3 5 4 6 8 8 13 12 15 19 25 28 29 27 28 25 23 24 24 25 23 24 24 19 21 17 15 14 14 14 14 15
8 9 8 9 7 9 12 14 13 14 13 12 12 11 10 9 6 5 6 7 6 6 7 4 8 11 12 22 25 23 23 24 25 27 27 23 28 23 28 22 20 20 22 13 16 16 13 14 14
5 7 9 5 6 9 13 15 16 16 17 17 15 14 14 10 8 7 8 8 4 3 5 3 6 7 24 24 28 23 23 24 27 26 29 30 28 20 29 25 21 21 23 18 20 15 13 15 14
8 9 11 8 6 10 14 18 20 19 18 19 18 17 16 14 11 9 8 8 4 5 6 4 2 9 21 28 20 18 20 22 20 25 26 29 29 32 30 25 20 22 22 16 22 16 14 15 14
10 10 8 9 11 15 13 21 13 8 8 11 12 14 10 11 11 11 8 9 9 9 7 9 6 6 9 15 20 15 13 12 15 24 26 31 37 37 34 28 26 26 25 21 23 17 20 15 13
11 5 7 9 11 9 4 6 7 11 7 8 7 8 9 9 11 11 11 13 12 9 9 9 10 6 8 11 15 17 18 18 24 22 21 24 23 26 25 25 27 28 25 24 23 19 21 19 15
11 2 9 11 13 15 15 8 5 2 9 6 3 3 6 6 7 9 7 7 7 9 13 12 11 9 9 11 12 15 21 18 30 22 23 20 19 21 23 26 29 29 26 24 23 19 22 19 16
3 11 14 15 10 12 10 7 7 6 7 6 5 6 5 7 5 4 3 4 7 9 10 12 12 11 9 14 12 13 18 23 24 22 23 23 22 21 23 25 26 26 25 24 21 20 20 19 17
10 10 8 8 9 6 5 7 11 2 4 8 12 10 8 4 4 6 6 5 8 12 13 13 14 16 16 14 11 14 17 21 24 25 23 24 23 23 21 22 25 25 25 22 20 21 19 17 17
10 9 8 8 8 6 5 7 3 6 4 8 11 10 9 7 5 6 7 8 11 12 15 18 19 20 19 18 18 15 17 19 20 25 28 28 25 23 20 20 22 23 22 21 21 20 17 15 16
7 9 6 11 15 13 12 14 12 15 7 6 5 3 7 8 8 9 11 15 16 18 17 19 21 23 22 23 20 19 19 20 21 22 24 26 25 23 21 19 20 21 21 21 21 18 15 14 15
13 10 7 9 8 14 10 12 10 14 3 4 4 6 6 6 10 13 15 19 22 22 24 21 20 22 23 23 23 23 21 20 22 21 22 23 22 21 20 19 20 21 22 21 20 15 14 16 17
8 12 10 10 7 6 9 5 6 4 6 6 8 5 8 12 17 19 20 25 24 25 26 25 22 19 19 21 22 24 24 24 23 21 22 23 22 19 20 20 22 23 23 21 19 17 17 18 17
13 15 14 8 10 11 11 21 9 8 6 6 10 15 17 16 16 18 18 23 26 26 25 20 20 19 20 22 24 25 25 25 24 24 24 21 21 20 21 23 23 24 23 22 20 19 19 20 18
Wind_Direction
336 315 281 241 238 238 241 194 268 164 179 224 291 291 295 315 273 30 60 155 160 166 166 171 175 180 180 179 179 177 175 174 172 170 168 168 166 165 162 163 161 158 156 156 157 154 153 151 144
307 289 238 257 253 228 225 213 204 229 35 316 262 250 248 256 307 311 316 41 171 168 169 169 177 181 183 182 181 181 180 177 177 174 172 172 169 168 166 168 165 166 161 161 158 156 153 147 144
235 246 263 257 242 245 300 138 293 125 355 68 258 261 301 346 19 321 357 327 190 178 172 175 177 183 185 184 185 184 183 181 181 177 175 174 173 173 170 172 171 168 168 165 160 156 152 150 147
204 193 206 244 241 193 256 329 31 228 341 199 335 269 266 62 348 319 291 264 194 186 177 183 177 183 188 189 187 186 185 185 183 180 178 177 176 176 174 173 173 171 170 166 164 163 160 154 153
215 252 252 243 247 272 251 270 288 279 285 259 325 293 300 27 350 337 308 225 194 186 181 182 180 184 189 192 191 189 188 186 185 182 181 181 180 178 177 175 177 176 174 170 171 171 169 168 164
221 272 241 241 230 223 234 260 267 279 286 246 242 309 325 356 356 346 325 221 197 184 180 180 184 185 190 194 195 194 191 190 188 185 184 185 184 182 181 180 181 182 181 178 183 183 181 185 181
240 225 248 253 248 232 232 220 250 261 271 234 337 297 354 1 357 352 331 224 196 184 181 180 184 187 190 196 199 198 196 194 192 191 189 189 189 189 187 189 189 190 193 192 196 199 200 201 203
238 244 249 243 247 241 236 220 231 235 270 344 258 312 331 346 352 351 344 222 191 187 185 182 183 185 188 196 201 201 201 200 198 196 195 194 195 197 198 199 200 201 201 206 214 218 218 220 219
226 236 241 237 236 247 231 222 208 216 248 276 284 294 321 330 336 339 356 227 195 188 190 185 185 186 190 192 201 204 205 205 203 201 202 201 195 206 213 211 219 212 212 214 222 225 227 230 232
216 227 241 246 246 245 237 214 214 255 243 257 272 282 289 314 323 324 328 207 207 194 193 189 190 189 192 193 195 198 206 204 203 202 205 199 204 208 209 220 226 223 224 227 230 233 230 231 234
223 243 244 250 275 268 265 251 240 238 252 257 279 304 305 307 306 312 319 328 198 208 198 197 192 188 195 197 192 195 202 203 205 204 204 203 209 214 213 216 230 230 233 228 235 236 234 234 234
247 237 260 241 232 260 259 264 256 247 247 299 289 295 302 300 306 313 319 312 300 203 211 206 202 197 202 198 197 194 198 202 205 207 206 204 207 213 215 217 224 226 230 230 227 232 236 239 239
237 232 233 247 251 244 261 257 261 264 261 281 278 267 283 293 294 295 321 251 290 246 219 212 210 203 205 205 202 200 202 202 206 211 210 208 212 217 219 222 222 228 237 238 237 237 237 247 250
236 256 243 244 253 250 252 263 256 256 227 250 261 267 287 289 282 285 286 278 265 278 249 219 210 208 205 210 203 202 205 206 208 214 216 215 217 223 224 224 227 229 235 242 241 238 238 247 252
245 251 238 240 246 248 265 261 249 262 278 256 261 263 272 287 285 272 292 278 268 264 270 229 218 214 206 210 208 202 206 208 213 217 220 221 222 228 225 229 220 228 228 227 232 243 244 247 252
237 243 240 178 225 207 222 258 129 172 273 244 304 314 266 248 268 270 286 284 284 254 261 224 217 218 218 216 206 212 213 215 215 216 222 225 221 223 229 224 224 240 246 238 226 232 240 244 248
202 257 223 166 201 222 228 253 172 231 274 279 265 266 274 255 248 266 309 320 318 311 271 217 207 216 227 236 220 216 213 216 221 220 225 227 227 224 221 230 229 231 225 227 238 230 235 241 245
210 234 209 254 172 248 250 249 248 255 263 267 269 266 253 265 260 288 306 316 324 325 337 284 253 227 254 246 229 213 217 225 225 225 226 225 237 227 238 233 239 238 232 222 232 224 224 237 246
267 258 260 247 288 279 271 273 269 260 256 255 252 259 266 264 262 261 286 298 302 335 341 5 262 207 234 237 225 208 218 222 225 229 229 237 233 233 242 233 237 234 237 234 231 218 221 231 236
247 255 257 279 271 288 276 278 277 263 256 251 251 247 252 259 254 258 261 288 315 324 334 306 165 203 215 229 221 212 210 223 232 236 236 236 233 239 236 230 234 229 237 224 224 207 217 228 222
236 268 286 284 311 276 280 272 246 225 238 243 245 255 246 251 267 264 281 310 318 330 334 313 309 296 281 256 236 225 223 233 226 230 231 237 240 241 239 235 234 225 226 223 220 206 212 221 217
266 191 269 278 286 287 343 287 261 233 239 207 241 254 254 256 244 249 272 298 308 316 316 311 312 317 303 288 258 243 223 228 236 230 229 221 224 224 225 231 227 226 227 224 217 203 213 220 217
270 285 268 284 279 285 260 240 255 167 222 237 176 258 263 251 266 289 267 285 296 312 321 318 315 326 303 278 265 255 243 234 245 232 226 226 220 222 225 224 223 223 223 224 218 204 210 213 218
283 258 264 256 260 249 234 245 267 188 224 172 284 288 285 286 278 222 203 291 307 304 311 314 313 294 272 259 257 250 255 243 241 232 230 229 228 227 226 223 223 223 221 218 213 212 211 211 215
235 256 272 241 204 252 117 268 251 190 232 288 304 304 297 327 254 234 251 284 315 314 309 305 301 295 284 276 268 258 254 254 248 243 231 234 229 225 222 219 221 223 218 210 208 212 212 209 214
218 275 282 285 272 293 239 253 102 106 310 277 285 275 271 252 238 255 265 272 287 297 306 304 300 300 298 288 280 273 257 254 248 246 240 236 232 229 216 212 221 224 219 206 206 209 208 209 214
223 234 292 286 272 268 258 261 241 217 215 260 286 293 237 258 278 278 292 293 299 300 292 295 295 292 293 286 276 272 267 257 252 248 241 242 236 229 222 214 213 214 212 207 203 208 202 203 208
249 293 229 214 266 257 250 266 270 178 261 300 302 293 296 296 284 295 304 303 299 297 296 288 285 284 290 286 276 272 269 263 257 255 248 241 237 223 220 208 202 200 204 203 203 203 199 195 200
190 225 227 288 243 257 283 274 64 308 294 282 304 300 312 294 293 297 297 293 288 285 289 288 278 270 279 285 277 272 272 267 262 255 251 238 235 222 215 207 197 197 199 201 201 200 192 192 197
270 272 218 226 240 245 274 273 336 301 284 309 277 297 301 299 296 295 292 290 289 281 282 279 278 272 277 279 275 269 266 265 259 252 248 237 228 222 212 208 200 199 198 197 196 193 192 196 199